1502175601.05,48967,19.81,74434.3,16.55,-24.35,-28.37,0,*40
1502175602.3,48968,19.81,74434.8,16.55,-25.09,-29.17,0,*42
1502175603.56,48969,19.81,74432.5,16.51,-24.15,-28.31,0,*4E
1502175604.8,48970,19.81,74432.3,16.51,-25.49,-29.57,0,*4F
1502175606.04,48971,19.81,74434.8,16.49,-25.23,-29.51,0,*4D
1502175607.31,48972,19.81,74432.3,16.47,-25.03,-29.29,0,*4D
1502175608.6,48973,19.81,74430.5,16.47,-25.71,-30.01,0,*4B
1502175609.86,48974,19.81,74428.3,16.43,-24.87,-29.01,0,*48
1502175611.09,48975,19.81,74430.8,16.45,-23.69,-27.67,0,*46
1502175612.29,48976,19.81,74430.3,16.45,-23.39,-27.51,0,*45
1502175613.52,48977,19.81,74434.5,16.43,-25.13,-29.39,0,*4C
1502175614.74,48978,19.81,74434.0,16.43,-24.51,-28.69,0,*40
1502175616.02,48979,19.81,74434.5,16.41,-24.67,-28.91,0,*41
1502175617.31,48980,19.81,74432.0,16.41,-25.55,-29.89,0,*4F
1502175618.58,48981,19.81,74434.3,16.39,-24.71,-28.91,0,*4E
1502175619.84,48982,19.81,74428.3,16.41,-25.29,-29.67,0,*46
1502175621.09,48983,19.81,74432.0,16.37,-25.61,-29.73,0,*4F
1502175622.32,48984,19.81,74434.5,16.37,-25.19,-29.45,0,*42
1502175623.58,48985,19.81,74434.3,16.33,-25.13,-29.35,0,*4A
1502175624.83,48986,19.81,74434.5,16.33,-24.93,-29.01,0,*47
1502175626.09,48987,19.81,74438.3,16.31,-24.87,-29.01,0,*41
1502175627.32,48988,19.81,74432.3,16.31,-24.97,-29.17,0,*48
1502175628.57,48989,19.81,74434.5,16.29,-25.19,-29.39,0,*4B
1502175629.83,48990,19.81,74434.0,16.29,-25.49,-29.73,0,*48
1502175631.08,48991,19.81,74436.0,16.29,-25.09,-29.39,0,*43
1502175632.29,48992,19.81,74432.5,16.27,-25.39,-29.61,0,*40
1502175633.56,48993,19.81,74434.0,16.23,-24.25,-27.99,0,*40
1502175634.83,48994,19.81,74428.8,16.27,-23.29,-27.35,0,*4E
1502175636.07,48995,19.81,74436.5,16.27,-22.77,-26.87,0,*4D
1502175637.3,48996,19.81,74432.8,16.27,-25.23,-29.29,0,*43
1502175638.52,48997,19.81,74434.0,16.23,-24.97,-29.13,0,*41
1502175639.78,48998,19.81,74434.0,16.23,-24.11,-28.59,0,*4F
1502175641.01,48999,19.81,74434.3,16.23,-25.29,-29.45,0,*48
1502175642.28,49000,19.81,74434.0,16.27,-24.21,-28.43,0,*4A
1502175643.5,49001,19.81,74432.5,16.23,-24.93,-29.13,0,*42
1502175644.75,49002,19.81,74432.8,16.23,-23.33,-27.39,0,*4A
1502175645.99,49003,19.81,74432.8,16.23,-24.31,-28.47,0,*48
1502175647.26,49004,19.81,74434.5,16.21,-24.21,-28.15,0,*4B
1502175648.5,49005,19.81,74434.8,16.21,-23.09,-27.29,0,*47
1502175649.77,49006,19.81,74432.0,16.21,-24.21,-28.37,0,*49
1502175651.02,49007,19.81,74432.3,16.21,-23.69,-27.77,0,*48
1502175652.27,49008,19.81,74432.0,16.23,-23.33,-27.45,0,*4B
1502175653.51,49009,19.81,74434.5,16.23,-23.99,-28.15,0,*40
1502175654.74,49010,19.81,74434.3,16.23,-23.03,-27.07,0,*47
1502175655.99,49011,19.81,74430.8,16.23,-23.95,-28.15,0,*45
1502175657.25,49012,19.81,74430.3,16.23,-24.25,-28.47,0,*4D
1502175658.51,49013,19.81,74434.8,16.21,-25.35,-29.51,0,*48
1502175659.76,49014,19.81,74434.0,16.21,-25.19,-29.51,0,*41
1502175660.97,49015,19.81,74432.0,16.19,-25.39,-29.61,0,*4A
1502175662.22,49016,19.81,74438.3,16.21,-25.19,-29.39,0,*4D
1502175663.51,49017,19.81,74432.5,16.17,-24.41,-28.25,0,*49
1502175664.8,49018,19.81,74432.5,16.17,-24.15,-28.25,0,*47
1502175666.09,49019,19.81,74432.3,16.17,-24.25,-28.25,0,*45
1502175667.31,49020,19.88,74434.8,16.15,-23.13,-27.07,0,*40
1502175668.6,49021,19.81,74434.3,16.17,-24.41,-28.59,0,*47
1502175669.85,49022,19.81,74432.8,16.17,-26.39,-30.55,0,*4C
1502175671.09,49023,19.81,74434.0,16.15,-25.71,-29.79,0,*46
1502175672.33,49024,19.81,74434.8,16.15,-24.31,-28.59,0,*47
1502175673.59,49025,19.81,74432.5,16.15,-23.29,-27.23,0,*4A
1502175674.83,49026,19.81,74432.8,16.15,-23.43,-27.61,0,*43
1502175676.09,49027,19.81,74436.3,16.17,-23.59,-27.61,0,*4B
1502175677.35,49028,19.81,74434.8,16.17,-23.65,-27.77,0,*4C
1502175678.61,49029,19.81,74434.0,16.17,-22.37,-26.29,0,*41
1502175679.85,49030,19.81,74436.8,16.17,-23.59,-27.55,0,*4A
1502175681.09,49031,19.81,74434.0,16.19,-22.77,-26.87,0,*46
1502175682.36,49032,19.81,74434.8,16.19,-22.77,-26.81,0,*43
1502175683.61,49033,19.81,74434.3,16.21,-23.39,-27.61,0,*4D
1502175684.87,49034,19.81,74434.5,16.21,-24.15,-28.15,0,*4F
1502175686.12,49035,19.81,74434.5,16.21,-25.45,-29.67,0,*4E
1502175687.37,49036,19.81,74432.5,16.19,-24.05,-28.09,0,*4A
1502175688.56,49037,19.81,74434.5,16.19,-24.93,-29.07,0,*4B
1502175689.81,49038,19.81,74432.0,16.17,-24.97,-29.13,0,*4B
1502175691.06,49039,19.81,74432.3,16.17,-25.13,-29.29,0,*4E
1502175692.3,49040,19.81,74432.8,16.15,-22.97,-26.93,0,*47
1502175693.56,49041,19.81,74434.8,16.17,-22.21,-26.23,0,*42
1502175694.79,49042,19.81,74432.5,16.17,-23.59,-27.71,0,*49
1502175696.05,49043,19.81,74434.5,16.17,-24.31,-28.47,0,*4B
1502175697.35,49044,19.81,74434.5,16.17,-24.25,-28.25,0,*4D
1502175698.58,49045,19.81,74434.8,16.17,-23.79,-27.93,0,*40
1502175699.84,49046,19.81,74434.5,16.17,-23.65,-27.71,0,*42
1502175701.07,49047,19.81,74434.0,16.17,-22.37,-26.23,0,*43
1502175702.33,49048,19.81,74434.3,16.19,-23.23,-27.19,0,*4E
1502175703.6,49049,19.81,74432.8,16.19,-22.77,-26.81,0,*4F
1502175704.84,49050,19.81,74434.0,16.19,-23.39,-27.39,0,*4E
1502175706.11,49051,19.81,74432.3,16.19,-24.21,-28.25,0,*43
1502175707.37,49052,19.81,74434.0,16.19,-23.23,-27.35,0,*4B
1502175708.63,49053,19.81,74438.8,16.19,-23.23,-27.19,0,*44
1502175709.87,49054,19.81,74436.0,16.21,-22.53,-26.65,0,*44
1502175711.12,49055,19.81,74438.3,16.21,-22.87,-26.97,0,*41
1502175712.34,49056,19.81,74434.3,16.19,-23.13,-27.07,0,*4D
1502175713.6,49057,19.81,74434.8,16.21,-22.93,-26.97,0,*46
1502175714.86,49058,19.81,74434.8,16.21,-23.19,-27.03,0,*46
1502175716.1,49059,19.81,74434.0,16.21,-23.59,-27.67,0,*41
1502175717.34,49060,19.81,74438.0,16.21,-24.05,-28.15,0,*4F
1502175718.58,49061,19.81,74438.3,16.21,-24.05,-28.15,0,*4E
1502175719.84,49062,19.81,74436.3,16.21,-23.89,-28.05,0,*4F
1502175721.1,49063,19.81,74434.8,16.21,-24.15,-28.15,0,*4D
1502175722.31,49064,19.81,74438.0,16.19,-23.39,-27.51,0,*47
1502175723.57,49065,19.81,74438.5,16.21,-22.41,-26.33,0,*46
1502175724.81,49066,19.81,74434.8,16.19,-22.83,-26.81,0,*49
1502175726.04,49067,19.81,74438.0,16.21,-22.53,-26.61,0,*40
1502175727.28,49068,19.81,74438.5,16.23,-22.31,-26.23,0,*4F
1502175728.51,49069,19.81,74438.8,16.23,-23.03,-27.07,0,*49
1502175729.77,49070,19.81,74432.8,16.23,-22.73,-26.77,0,*41
1502175731.03,49071,19.81,74434.8,16.23,-23.29,-27.23,0,*4E
1502175732.29,49072,19.81,74434.5,16.23,-22.73,-26.77,0,*43
1502175733.5,49073,19.81,74432.5,16.27,-22.83,-26.87,0,*46
1502175734.74,49074,19.81,74432.0,16.27,-21.97,-26.03,0,*4B
1502175735.96,49075,19.81,74434.8,16.27,-22.11,-26.03,0,*47
1502175737.23,49076,19.81,74436.8,16.27,-21.87,-25.75,0,*4A
1502175738.52,49077,19.81,74432.8,16.29,-22.31,-26.33,0,*4A
1502175739.78,49078,19.81,74438.3,16.29,-21.03,-24.93,0,*4F
1502175740.99,49079,19.81,74436.3,16.31,-21.77,-25.87,0,*40
1502175742.22,49080,19.81,74438.8,16.31,-22.41,-26.29,0,*47
1502175743.48,49081,19.81,74436.5,16.33,-21.47,-25.45,0,*48
1502175744.71,49082,19.81,74436.5,16.37,-22.03,-25.87,0,*42
1502175745.96,49083,19.81,74438.5,16.37,-21.97,-25.87,0,*4D
1502175747.26,49084,19.81,74436.5,16.37,-21.87,-25.75,0,*46
1502175748.52,49085,19.81,74436.5,16.37,-22.17,-26.07,0,*4B
1502175749.76,49086,19.81,74436.8,16.39,-21.73,-25.55,0,*43
1502175751.0,49087,19.81,74436.0,16.41,-21.63,-25.49,0,*41
1502175752.23,49088,19.81,74438.5,16.39,-22.47,-26.49,0,*47
1502175753.49,49089,19.81,74436.3,16.41,-21.97,-25.87,0,*46
1502175754.76,49090,19.81,74434.8,16.41,-21.53,-25.49,0,*44
1502175755.96,49091,19.81,74438.8,16.43,-22.41,-26.45,0,*48
1502175757.23,49092,19.81,74434.0,16.43,-22.21,-26.33,0,*4C
1502175758.43,49093,19.81,74438.8,16.43,-22.03,-25.91,0,*46
1502175759.65,49094,19.81,74434.0,16.45,-21.63,-25.49,0,*47
1502175760.88,49095,19.81,74436.0,16.43,-22.63,-26.81,0,*44
1502175762.08,49096,19.81,74436.8,16.45,-22.07,-25.91,0,*41
1502175763.37,49097,19.81,74434.8,16.47,-21.87,-25.71,0,*47
1502175764.64,49098,19.81,74438.0,16.47,-22.17,-26.07,0,*40
1502175765.9,49099,19.81,74432.0,16.47,-21.83,-25.61,0,*4C
1502175767.13,49100,19.81,74436.3,16.47,-22.03,-25.91,0,*49
1502175768.4,49101,19.81,74438.0,16.49,-21.83,-25.71,0,*43
1502175769.63,49102,19.81,74438.0,16.49,-20.99,-24.97,0,*43
1502175770.86,49103,19.81,74436.0,16.49,-22.63,-26.71,0,*4F
1502175772.1,49104,19.81,74438.0,16.49,-21.83,-25.65,0,*43
1502175773.36,49105,19.81,74436.5,16.49,-22.17,-26.17,0,*4A
1502175774.62,49106,19.81,74436.0,16.49,-22.17,-26.33,0,*4F
1502175775.87,49107,19.81,74436.5,16.51,-21.47,-25.49,0,*4F
1502175777.1,49108,19.81,74436.5,16.53,-20.99,-24.77,0,*4C
1502175778.3,49109,19.81,74434.8,16.53,-21.09,-24.97,0,*4B
1502175779.53,49110,19.81,74436.5,16.53,-22.03,-25.97,0,*4B
1502175780.82,49111,19.81,74436.8,16.59,-21.83,-25.71,0,*43
1502175782.05,49112,19.81,74438.0,16.59,-21.13,-24.93,0,*44
1502175783.32,49113,19.81,74436.5,16.55,-20.79,-24.67,0,*4F
1502175784.59,49114,19.81,74432.3,16.59,-21.53,-25.13,0,*4F
1502175785.82,49115,19.81,74438.5,16.59,-20.93,-24.77,0,*40
1502175787.03,49116,19.81,74434.8,16.61,-21.63,-25.39,0,*4D
1502175788.23,49117,19.81,74436.8,16.61,-21.09,-24.97,0,*45
1502175789.46,49118,19.81,74436.0,16.61,-21.33,-25.23,0,*4D
1502175790.68,49119,19.81,74438.3,16.63,-21.39,-25.23,0,*44
1502175791.89,49120,19.88,74440.0,16.65,-20.63,-24.47,0,*45
1502175793.16,49121,19.81,74436.8,16.67,-20.35,-24.25,0,*41
1502175794.41,49122,19.81,74434.5,16.65,-20.79,-24.67,0,*4E
1502175795.67,49123,19.81,74438.8,16.67,-22.31,-26.45,0,*41
1502175796.9,49124,19.81,74436.5,16.67,-21.39,-25.23,0,*4E
1502175798.15,49125,19.81,74436.3,16.67,-21.09,-24.87,0,*43
1502175799.41,49126,19.81,74438.8,16.71,-20.89,-24.87,0,*4E
1502175800.65,49127,19.88,74440.0,16.71,-21.77,-25.65,0,*42
1502175801.88,49128,19.81,74436.8,16.71,-21.17,-24.93,0,*43
1502175803.1,49129,19.81,74436.5,16.71,-21.09,-24.93,0,*4D
1502175804.35,49130,19.81,74436.8,16.73,-21.57,-25.45,0,*46
1502175805.58,49131,19.81,74440.0,16.73,-21.27,-24.97,0,*4E
1502175806.81,49132,19.81,74436.8,16.73,-20.53,-24.05,0,*44
1502175808.07,49133,19.81,74438.0,16.75,-21.27,-25.13,0,*47
1502175809.32,49134,19.81,74436.0,16.75,-21.97,-25.91,0,*41
1502175810.57,49135,19.81,74438.0,16.75,-22.07,-25.97,0,*4C
1502175811.85,49136,19.81,74436.3,16.75,-21.57,-25.45,0,*46
1502175813.05,49137,19.81,74436.5,16.73,-21.47,-25.19,0,*49
1502175814.29,49138,19.81,74438.0,16.75,-21.77,-25.61,0,*4C
1502175815.55,49139,19.81,74436.0,16.75,-22.27,-26.17,0,*49
1502175816.78,49140,19.88,74438.0,16.77,-21.93,-25.87,0,*43
1502175818.07,49141,19.81,74438.0,16.77,-22.21,-26.29,0,*4F
1502175819.29,49142,19.88,74440.3,16.77,-22.07,-26.07,0,*44
1502175820.52,49143,19.81,74438.8,16.77,-22.83,-26.87,0,*41
1502175821.75,49144,19.81,74438.0,16.81,-22.27,-26.23,0,*4F
1502175822.98,49145,19.81,74436.5,16.77,-21.93,-25.87,0,*46
1502175824.23,49146,19.81,74438.0,16.75,-21.63,-25.45,0,*46
1502175825.47,49147,19.81,74438.5,16.75,-21.73,-25.65,0,*44
1502175826.7,49148,19.81,74436.5,16.81,-21.47,-25.23,0,*45
1502175827.98,49149,19.81,74436.0,16.77,-21.57,-25.45,0,*4C
1502175829.2,49150,19.81,74436.5,16.77,-22.07,-26.07,0,*47
1502175830.46,49151,19.81,74436.3,16.81,-20.93,-24.87,0,*4A
1502175831.72,49152,19.81,74436.5,16.81,-21.23,-25.09,0,*44
1502175832.96,49153,19.81,74438.0,16.81,-22.11,-26.03,0,*4E
1502175834.22,49154,19.81,74436.5,16.81,-21.53,-25.39,0,*46
1502175835.43,49155,19.81,74440.0,16.83,-22.11,-26.03,0,*4A
1502175836.66,49156,19.81,74438.8,16.83,-22.11,-26.17,0,*4C
1502175837.89,49157,19.81,74436.0,16.83,-22.63,-26.77,0,*4E
1502175839.11,49158,19.81,74436.0,16.83,-22.11,-26.03,0,*47
1502175840.34,49159,19.81,74438.3,16.83,-22.27,-26.33,0,*40
1502175841.55,49160,19.81,74436.3,16.83,-22.63,-26.61,0,*4D
1502175842.76,49161,19.81,74438.3,16.83,-22.57,-26.61,0,*4B
1502175844.03,49162,19.81,74436.3,16.77,-22.73,-26.71,0,*44
1502175845.27,49163,19.81,74438.8,16.77,-22.53,-26.39,0,*4B
1502175846.56,49164,19.88,74440.8,16.81,-22.17,-26.17,0,*49
1502175847.82,49165,19.81,74432.5,16.81,-22.17,-26.07,0,*49
1502175849.11,49166,19.88,74440.8,16.81,-22.17,-26.17,0,*4B
1502175850.34,49167,19.81,74436.5,16.83,-22.37,-26.33,0,*4C
1502175851.6,49168,19.81,74434.8,16.85,-21.93,-25.97,0,*45
1502175852.84,49169,19.81,74438.0,16.83,-21.47,-25.29,0,*4E
1502175854.1,49170,19.81,74440.5,16.83,-20.99,-24.87,0,*41
1502175855.34,49171,19.81,74438.3,16.83,-21.77,-25.75,0,*4D
1502175856.59,49172,19.81,74438.5,16.85,-21.93,-25.81,0,*49
1502175857.84,49173,19.81,74436.3,16.85,-21.13,-24.87,0,*47
1502175859.09,49174,19.81,74436.3,16.85,-21.13,-24.87,0,*40
1502175860.35,49175,19.81,74436.0,16.87,-21.57,-25.45,0,*4C
1502175861.58,49176,19.81,74438.5,16.89,-21.09,-24.93,0,*40
1502175862.78,49177,19.81,74436.5,16.91,-21.17,-24.93,0,*47
1502175864.04,49178,19.81,74436.0,16.91,-20.79,-24.71,0,*4D
1502175865.25,49179,19.81,74440.0,16.91,-21.39,-25.35,0,*48
1502175866.5,49180,19.81,74438.3,16.91,-22.47,-26.55,0,*41
1502175867.74,49181,19.81,74440.8,16.91,-22.53,-26.55,0,*45
1502175868.95,49182,19.81,74436.8,16.91,-22.11,-26.03,0,*43
1502175870.17,49183,19.81,74438.8,16.91,-21.73,-25.49,0,*48
1502175871.39,49184,19.81,74440.0,16.93,-22.07,-26.03,0,*40
1502175872.62,49185,19.81,74436.3,16.93,-22.11,-26.03,0,*46
1502175873.83,49186,19.81,74440.5,16.91,-23.13,-27.07,0,*41
1502175875.04,49187,19.81,74436.3,16.91,-22.27,-26.23,0,*41
1502175876.26,49188,19.81,74438.0,16.91,-21.97,-25.91,0,*4C
1502175877.5,49189,19.81,74438.0,16.91,-22.93,-26.93,0,*4B
1502175878.75,49190,19.81,74438.8,16.93,-22.37,-26.17,0,*43
1502175879.98,49191,19.81,74434.3,16.91,-22.67,-26.77,0,*43
1502175881.19,49192,19.81,74436.0,16.91,-22.97,-26.87,0,*40
1502175882.41,49193,19.81,74438.8,16.91,-23.09,-27.03,0,*4A
1502175883.67,49194,19.81,74434.8,16.91,-22.17,-26.17,0,*47
1502175884.91,49195,19.81,74438.8,16.93,-23.39,-27.45,0,*4F
1502175886.14,49196,19.81,74438.5,16.93,-23.09,-27.13,0,*4C
1502175887.38,49197,19.81,74438.8,16.89,-23.79,-27.71,0,*45
1502175888.61,49198,19.81,74436.8,16.87,-22.57,-26.71,0,*48
1502175889.89,49199,19.81,74436.3,16.89,-22.73,-26.77,0,*47
1502175891.13,49200,19.81,74436.3,16.89,-22.37,-26.45,0,*45
1502175892.35,49201,19.81,74438.3,16.89,-22.07,-26.07,0,*41
1502175893.61,49202,19.81,74438.5,16.89,-22.53,-26.55,0,*44
1502175894.88,49203,19.81,74438.0,16.89,-23.95,-28.15,0,*44
1502175896.14,49204,19.81,74436.3,16.87,-23.99,-28.25,0,*42
1502175897.35,49205,19.81,74436.8,16.87,-22.57,-26.61,0,*4E
1502175898.61,49206,19.81,74436.3,16.89,-23.03,-27.13,0,*47
1502175899.81,49207,19.81,74434.8,16.87,-23.79,-27.93,0,*4D
1502175901.05,49208,19.81,74436.3,16.87,-23.79,-27.83,0,*43
1502175902.28,49209,19.81,74436.0,16.87,-23.95,-27.93,0,*41
1502175903.51,49210,19.81,74434.0,16.83,-24.51,-28.79,0,*49
1502175904.79,49211,19.81,74436.0,16.85,-23.33,-27.35,0,*4A
1502175906.05,49212,19.81,74438.0,16.83,-23.99,-28.05,0,*43
1502175907.29,49213,19.81,74432.0,16.83,-23.19,-27.13,0,*42
1502175908.55,49214,19.88,74440.0,16.83,-23.49,-27.61,0,*45
1502175909.75,49215,19.81,74438.3,16.83,-22.87,-26.87,0,*4E
1502175911.01,49216,19.81,74436.5,16.81,-21.97,-26.03,0,*41
1502175912.23,49217,19.81,74438.0,16.85,-22.41,-26.49,0,*42
1502175913.49,49218,19.81,74438.0,16.85,-22.57,-26.77,0,*47
1502175914.7,49219,19.81,74434.3,16.83,-22.53,-26.65,0,*47
1502175915.97,49220,19.81,74438.5,16.83,-21.67,-25.75,0,*4B
1502175917.25,49221,19.81,74438.8,16.85,-21.27,-25.29,0,*41
1502175918.53,49222,19.81,74432.0,16.85,-21.83,-25.97,0,*49
1502175919.77,49223,19.81,74438.5,16.87,-22.53,-26.81,0,*40
1502175921.01,49224,19.81,74434.0,16.87,-24.31,-28.59,0,*4E
1502175922.29,49225,19.81,74434.3,16.85,-23.99,-28.05,0,*41
1502175923.49,49226,19.81,74430.0,16.83,-24.97,-29.07,0,*4E
1502175924.74,49227,19.88,74440.8,16.83,-24.67,-28.79,0,*48
1502175926.0,49228,19.81,74434.8,16.81,-24.05,-28.25,0,*48
1502175927.26,49229,19.81,74434.0,16.81,-23.09,-27.19,0,*42
1502175928.52,49230,19.81,74436.5,16.81,-22.47,-26.49,0,*45
1502175929.77,49231,19.88,74438.3,16.77,-21.57,-25.35,0,*47
1502175931.03,49232,19.81,74432.3,16.85,-21.93,-25.81,0,*4E
1502175932.24,49233,19.81,74434.5,16.83,-21.77,-25.65,0,*49
1502175933.46,49234,19.81,74432.5,16.85,-22.41,-26.45,0,*4F
1502175934.7,49235,19.81,74434.5,16.85,-22.11,-26.03,0,*49
1502175935.95,49236,19.81,74432.3,16.85,-21.63,-25.75,0,*4E
1502175937.18,49237,19.81,74434.0,16.87,-22.31,-26.45,0,*49
1502175938.47,49238,19.81,74432.8,16.89,-22.17,-26.13,0,*4F
1502175939.68,49239,19.81,74432.8,16.87,-22.37,-26.45,0,*41
1502175940.97,49240,19.81,74438.0,16.89,-22.31,-26.13,0,*44
1502175942.19,49241,19.81,74432.0,16.89,-22.07,-26.23,0,*43
1502175943.47,49242,19.81,74436.8,16.89,-22.73,-26.81,0,*4B
1502175944.68,49243,19.81,74432.0,16.91,-21.73,-25.91,0,*42
1502175945.91,49244,19.81,74432.3,16.91,-21.87,-25.91,0,*4E
1502175947.17,49245,19.81,74434.0,16.93,-22.47,-26.61,0,*4E
1502175948.4,49246,19.81,74432.3,16.91,-21.83,-25.87,0,*4F
1502175949.65,49247,19.88,74436.3,16.93,-21.77,-25.81,0,*41
1502175950.9,49248,19.81,74434.8,16.93,-21.63,-25.81,0,*4B
1502175952.13,49249,19.81,74432.0,16.93,-21.93,-25.87,0,*43
1502175953.36,49250,19.81,74434.8,16.93,-22.37,-26.49,0,*47
1502175954.61,49251,19.81,74432.5,16.97,-22.41,-26.55,0,*4E
1502175955.86,49252,19.81,74432.3,16.97,-22.17,-26.23,0,*4F
1502175957.09,49253,19.81,74432.3,16.97,-22.03,-26.07,0,*4D
1502175958.38,49254,19.81,74434.3,16.97,-22.31,-26.29,0,*47
1502175959.63,49255,19.81,74434.3,16.97,-21.87,-25.91,0,*48
1502175960.89,49256,19.81,74436.8,16.97,-22.03,-26.13,0,*4D
1502175962.1,49257,19.81,74434.3,16.99,-22.37,-26.39,0,*4D
1502175963.33,49258,19.81,74436.8,16.99,-22.27,-26.33,0,*49
1502175964.6,49259,19.81,74434.8,16.99,-21.67,-25.75,0,*4E
1502175965.81,49260,19.81,74434.0,16.99,-22.53,-26.61,0,*46
1502175967.05,49261,19.81,74436.8,16.99,-22.77,-26.87,0,*49
1502175968.28,49262,19.81,74438.8,16.99,-22.31,-26.49,0,*4A
1502175969.51,49263,19.81,74434.8,16.99,-22.27,-26.33,0,*41
1502175970.76,49264,19.81,74434.8,17.01,-22.77,-26.87,0,*4C
1502175972.04,49265,19.81,74432.5,17.01,-22.21,-26.29,0,*4A
1502175973.3,49266,19.81,74434.5,17.01,-21.77,-25.71,0,*47
1502175974.57,49267,19.81,74434.5,17.01,-21.97,-25.97,0,*40
1502175975.82,49268,19.88,74438.0,17.05,-22.07,-26.13,0,*4E
1502175977.05,49269,19.81,74434.8,17.05,-21.93,-26.03,0,*40
1502175978.29,49270,19.81,74434.8,17.07,-23.19,-27.29,0,*43
1502175979.51,49271,19.81,74436.0,17.07,-22.21,-26.23,0,*43
1502175980.76,49272,19.81,74434.0,17.05,-22.63,-26.81,0,*4C
1502175982.01,49273,19.81,74432.5,17.05,-22.87,-26.97,0,*40
1502175983.27,49274,19.81,74436.3,17.01,-24.05,-28.21,0,*4C
1502175984.54,49275,19.81,74434.3,17.01,-23.69,-27.99,0,*4C
1502175985.77,49276,19.81,74438.8,16.99,-23.65,-27.71,0,*45
1502175987.0,49277,19.81,74436.5,16.99,-23.49,-27.71,0,*4A
1502175988.23,49278,19.81,74434.8,16.99,-23.29,-27.51,0,*41
1502175989.48,49279,19.81,74432.5,17.01,-22.21,-26.45,0,*4D
1502175990.73,49280,19.81,74436.5,17.01,-22.11,-26.17,0,*4F
1502175991.96,49281,19.81,74438.0,17.01,-23.09,-27.29,0,*4A
1502175993.19,49282,19.81,74434.5,16.99,-22.77,-26.87,0,*44
1502175994.44,49283,19.81,74434.8,17.01,-22.73,-26.87,0,*41
1502175995.67,49284,19.81,74436.0,16.99,-23.65,-27.77,0,*4E
1502175996.9,49285,19.81,74432.0,17.01,-22.97,-27.07,0,*44
1502175998.15,49286,19.81,74434.5,16.99,-23.29,-27.39,0,*4E
1502175999.36,49287,19.81,74434.5,16.99,-22.97,-27.07,0,*46
1502176000.58,49288,19.81,74436.5,16.99,-23.09,-27.07,0,*4F
1502176001.81,49289,19.88,74436.8,16.99,-22.67,-26.77,0,*41
1502176003.04,49290,19.81,74432.8,16.99,-22.47,-26.61,0,*4C
1502176004.31,49291,19.81,74434.8,17.01,-23.33,-27.45,0,*48
1502176005.54,49292,19.81,74434.8,16.99,-24.61,-28.79,0,*4B
1502176006.83,49293,19.81,74434.8,16.97,-25.75,-30.17,0,*41
1502176008.06,49294,19.81,74438.5,16.95,-25.55,-29.61,0,*4F
1502176009.28,49295,19.81,74436.8,16.95,-24.77,-29.17,0,*4E
1502176010.55,49296,19.81,74436.3,16.93,-25.45,-29.73,0,*49
1502176011.76,49297,19.81,74438.5,16.91,-24.77,-28.97,0,*41
1502176013.02,49298,19.81,74438.8,16.89,-26.39,-30.73,0,*4C
1502176014.25,49299,19.81,74434.0,16.87,-24.57,-28.75,0,*46
1502176015.48,49300,19.81,74436.3,16.87,-24.77,-29.01,0,*47
1502176016.74,49301,19.81,74436.5,16.85,-25.65,-29.89,0,*46
1502176017.99,49302,19.88,74440.5,16.83,-25.29,-29.39,0,*40
1502176019.19,49303,19.81,74436.0,16.83,-25.35,-29.57,0,*44
1502176020.43,49304,19.88,74438.0,16.83,-25.81,-30.27,0,*43
1502176021.69,49305,19.81,74438.8,16.75,-26.65,-31.11,0,*46
1502176022.92,49306,19.88,74436.3,16.73,-26.45,-30.89,0,*41
1502176024.16,49307,19.81,74434.5,16.71,-26.39,-30.83,0,*43
1502176025.43,49308,19.81,74438.3,16.69,-25.55,-29.89,0,*4E
1502176026.64,49309,19.81,74436.8,16.69,-25.19,-29.29,0,*4D
1502176027.87,49310,19.88,74440.0,16.69,-25.71,-30.11,0,*48
1502176029.12,49311,19.81,74436.3,16.67,-24.77,-29.13,0,*4A
1502176030.37,49312,19.88,74440.5,16.67,-24.97,-29.29,0,*4E
1502176031.64,49313,19.81,74442.3,16.67,-24.71,-28.97,0,*43
1502176032.85,49314,19.81,74436.5,16.65,-24.51,-28.85,0,*47
1502176034.1,49315,19.81,74438.3,16.65,-23.23,-27.45,0,*47
1502176035.36,49316,19.81,74436.5,16.67,-23.19,-27.29,0,*45
1502176036.62,49317,19.81,74434.8,16.67,-24.61,-28.91,0,*40
1502176037.85,49318,19.81,74438.0,16.67,-25.39,-29.79,0,*44
1502176039.12,49319,19.81,74438.8,16.67,-26.29,-30.67,0,*40
1502176040.34,49320,19.81,74438.0,16.65,-27.35,-31.79,0,*4A
1502176041.57,49321,19.81,74434.3,16.61,-26.71,-31.29,0,*4B
1502176042.8,49322,19.88,74436.3,16.61,-26.55,-31.01,0,*44
1502176044.06,49323,19.88,74436.0,16.55,-26.81,-31.29,0,*41
1502176045.35,49324,19.81,74436.0,16.55,-26.97,-31.61,0,*4D
1502176046.63,49325,19.81,74434.0,16.51,-26.55,-30.95,0,*4C
1502176047.86,49326,19.81,74434.3,16.51,-25.23,-29.61,0,*4E
1502176049.08,49327,19.81,74434.3,16.49,-23.75,-27.89,0,*4B
1502176050.32,49328,19.81,74432.5,16.49,-24.41,-28.69,0,*45
1502176051.53,49329,19.81,74432.0,16.49,-23.59,-27.89,0,*4B
1502176052.74,49330,19.88,74438.0,16.49,-23.43,-27.55,0,*49
1502176053.98,49331,19.81,74436.5,16.49,-24.25,-28.53,0,*46
1502176055.26,49332,19.81,74434.5,16.51,-24.87,-29.17,0,*45
1502176056.52,49333,19.81,74438.0,16.51,-23.53,-27.55,0,*42
1502176057.77,49334,19.81,74436.3,16.51,-24.05,-28.31,0,*4C
1502176059.01,49335,19.81,74436.8,16.51,-23.75,-27.89,0,*41
1502176060.31,49336,19.81,74434.8,16.51,-24.25,-28.43,0,*49
1502176061.59,49337,19.81,74434.3,16.51,-24.87,-29.17,0,*40
1502176062.85,49338,19.81,74438.0,16.51,-24.15,-28.37,0,*47
1502176064.12,49339,19.81,74436.8,16.51,-24.41,-28.53,0,*45
1502176065.41,49340,19.81,74440.3,16.51,-24.71,-29.01,0,*4E
1502176066.65,49341,19.88,74442.8,16.51,-25.23,-29.57,0,*4A
1502176067.88,49342,19.81,74436.8,16.47,-25.39,-29.79,0,*49
1502176069.14,49343,19.81,74436.3,16.47,-24.57,-28.63,0,*4B
1502176070.42,49344,19.88,74436.3,16.47,-24.41,-28.75,0,*4C
1502176071.72,49345,19.81,74436.5,16.47,-24.25,-28.43,0,*4A
1502176073.01,49346,19.81,74436.3,16.47,-24.71,-28.91,0,*47
1502176074.27,49347,19.81,74436.5,16.47,-23.65,-27.89,0,*42
1502176075.55,49348,19.81,74436.3,16.47,-23.95,-28.09,0,*45
1502176076.79,49349,19.81,74438.5,16.47,-25.39,-29.61,0,*4B
1502176078.05,49350,19.81,74438.3,16.45,-25.75,-30.39,0,*4C
1502176079.31,49351,19.81,74438.0,16.45,-26.29,-30.73,0,*49
1502176080.53,49352,19.88,74442.5,16.43,-26.03,-30.23,0,*41
1502176081.76,49353,19.81,74436.3,16.41,-25.65,-29.95,0,*44
1502176083.02,49354,19.81,74440.3,16.41,-25.29,-29.57,0,*45
1502176084.27,49355,19.81,74438.8,16.39,-25.03,-29.39,0,*4B
1502176085.5,49356,19.81,74438.3,16.39,-24.87,-29.07,0,*48
1502176086.74,49357,19.81,74438.8,16.39,-25.55,-29.83,0,*4B
1502176087.99,49358,19.81,74436.8,16.41,-25.13,-29.39,0,*48
1502176089.27,49359,19.88,74438.0,16.37,-24.87,-28.91,0,*47
1502176090.53,49360,19.81,74436.0,16.37,-25.61,-30.01,0,*44
1502176091.79,49361,19.88,74442.5,16.33,-24.67,-28.97,0,*40
1502176093.05,49362,19.88,74438.8,16.33,-25.97,-30.33,0,*4A
1502176094.29,49363,19.81,74438.5,16.33,-25.23,-29.45,0,*4D
1502176095.52,49364,19.81,74438.5,16.31,-25.97,-30.11,0,*4E
1502176096.78,49365,19.81,74436.0,16.29,-25.91,-30.17,0,*46
1502176098.04,49366,19.81,74438.3,16.29,-25.49,-29.73,0,*4A